This is the latest recevied weather packets stored in our database for station/object YU4PTT-8. If no packets are shown the sender has not sent any weather packets the latest 10 day(s).
| Time | Temp. | Humidity | Pressure | Rain* | Wind** | Luminosity | Snow |
|---|---|---|---|---|---|---|---|
| 1777537099 | 0.56° C | 95% | 1010.7 hPa | 0 mm | 2.68 m/s, 338° | - | - |
| 1777534744 | 0.56° C | 95% | 1010.6 hPa | 0 mm | 3.13 m/s, 338° | - | - |
| 1777532928 | 0.56° C | 95% | 1010.6 hPa | 0 mm | 2.68 m/s, 22° | - | - |
| 1777531099 | 0° C | 95% | 1010.2 hPa | 0 mm | 0 m/s | - | - |
| 1777528698 | 0° C | 95% | 1010.1 hPa | 0 mm | 0 m/s | - | - |
| 1777526329 | 0.56° C | 95% | 1009.8 hPa | 0 mm | 1.79 m/s, 22° | - | - |
| 1777524499 | 0° C | 95% | 1009.3 hPa | 0 mm | 2.24 m/s, 22° | - | - |
| 1777522129 | 0.56° C | 95% | 1009.2 hPa | 0 mm | 2.24 m/s, 45° | - | - |
| 1777519729 | 0.56° C | 95% | 1008.9 hPa | 0 mm | 2.24 m/s, 338° | - | - |
| 1777517328 | 0.56° C | 96% | 1008.8 hPa | 0.51 mm | 1.79 m/s, 22° | - | - |
| 1777514929 | 0.56° C | 96% | 1008.9 hPa | 0 mm | 0.89 m/s, 45° | - | - |
| 1777513098 | 0.56° C | 96% | 1008.8 hPa | 0.51 mm | 1.34 m/s, 22° | - | - |
| 1777510698 | 1.67° C | 96% | 1008.7 hPa | 3.3 mm | 1.34 m/s, 22° | - | - |
| 1777508328 | 1.67° C | 96% | 1008.5 hPa | 1.52 mm | 2.24 m/s, 0° | - | - |
| 1777505928 | 2.78° C | 96% | 1008.9 hPa | 0 mm | 4.02 m/s, 0° | - | - |
| 1777504098 | 2.78° C | 96% | 1009.1 hPa | 0 mm | 0.89 m/s, 22° | - | - |
| 1777501729 | 2.78° C | 96% | 1008.8 hPa | 0 mm | 0 m/s | - | - |
| 1777499899 | 2.78° C | 96% | 1008.9 hPa | 0 mm | 0 m/s | - | - |
| 1777497529 | 2.78° C | 96% | 1008.8 hPa | 0 mm | 2.24 m/s, 22° | - | - |
| 1777495128 | 3.33° C | 96% | 1008.6 hPa | 1.27 mm | 1.34 m/s, 22° | - | - |
| 1777493298 | 3.89° C | 96% | 1008.5 hPa | 0.51 mm | 3.58 m/s, 315° | - | - |
| 1777490898 | 4.44° C | 96% | 1008.4 hPa | 0.51 mm | 1.34 m/s, 0° | - | - |
| 1777488499 | 4.44° C | 96% | 1008.4 hPa | 1.27 mm | 0 m/s | - | - |
| 1777486128 | 4.44° C | 97% | 1007.8 hPa | 0 mm | 1.79 m/s, 0° | - | - |
| 1777484298 | 4.44° C | 97% | 1007.5 hPa | 0.51 mm | 0.89 m/s, 22° | - | - |
* Rain latest hour (hover to see other rain measurements)
** Current wind speed in m/s (hover to see current wind gust speed)